Flag for United Kingdom Weather past 2 weeks in Luton, England, United Kingdom

Now
50 °F

Passing clouds.


Feels Like: 47 °F
Forecast: 52 / 60 °F
Wind: 7 mph from Southwest

Location: Luton Airport

Current Time: Oct 23, 2014 at 4:22:37 AM

Latest Report: Oct 23, 2014 at 3:50 AM


Visibility: N/A

Pressure: 30.12 "Hg

Humidity: 94%

Dew point: 48 °F

Location of LutonLocation

Historic Weather in Luton — Graph

°F

Luton temperature yesterday

Maximum temperature yesterday: 55 °F (at 12:50 PM)
Minimum temperature yesterday: 43 °F (at 12:20 AM)
Average temperature yesterday: 48 °F

Past Weeks' High & Low Weather Summary

 TemperatureHumidityPressure
High64 °F (Oct 17, 1:50 PM)100% (Oct 8, 3:20 AM)30.27 "Hg (Oct 8, 3:20 AM)
Low39 °F (Oct 12, 4:20 AM)54% (Oct 21, 2:50 PM)29.30 "Hg (Oct 8, 2:50 PM)
Average54 °F91%29.75 "Hg
* Reported Oct 8 3:20 AM — Oct 23 3:20 AM, Luton, Weather by CustomWeather, © 2014

Note: Actual official high and low records may vary slightly from our data, if they occured in-between our weather recording intervals... More about our weather records

Advertising

Luton weather history for previous 24 hours

 ConditionsComfort  
Time TempWeatherWind HumidityBarometerVisibility
3:20 AM
Oct 23
50 °FPassing clouds.7 mph94%30.15 "HgN/A
2:50 AM48 °FPassing clouds.6 mph100%30.15 "HgN/A
2:20 AM48 °FPassing clouds.5 mph100%30.15 "HgN/A
1:50 AM48 °FOvercast.5 mph100%30.15 "HgN/A
1:20 AM48 °FPassing clouds.6 mph100%30.15 "HgN/A
12:50 AM48 °FPassing clouds.5 mph100%30.15 "HgN/A
12:20 AM50 °FClear.6 mph94%30.18 "Hg10 mi
11:50 PM
Oct 22
52 °FClear.9 mph82%30.18 "Hg10 mi
11:20 PM50 °FClear.9 mph88%30.18 "Hg10 mi
10:50 PM50 °FClear.9 mph94%30.18 "Hg10 mi
10:20 PM50 °FClear.9 mph94%30.18 "Hg10 mi
9:50 PM50 °FClear.10 mph94%30.18 "Hg10 mi
9:20 PM52 °FClear.9 mph88%30.18 "Hg10 mi
8:50 PM52 °FPassing clouds.9 mph88%30.21 "HgN/A
8:20 PM52 °FPassing clouds.12 mph82%30.21 "HgN/A
7:50 PM52 °FPassing clouds.9 mph82%30.21 "HgN/A
7:20 PM50 °FPassing clouds.9 mph82%30.21 "HgN/A
6:50 PM50 °FPassing clouds.6 mph82%30.21 "HgN/A
6:20 PM50 °FScattered clouds.8 mph88%30.21 "HgN/A
5:50 PM52 °FMore clouds than sun.9 mph77%30.21 "HgN/A
5:20 PM52 °FPartly sunny.9 mph77%30.21 "HgN/A
4:50 PM52 °FDrizzle. Partly sunny.9 mph82%30.21 "HgN/A
4:20 PM52 °FPassing clouds.10 mph77%30.21 "HgN/A
3:20 PM54 °FDrizzle. Partly sunny.13 mph72%30.24 "HgN/A
2:50 PM54 °FPartly sunny.16 mph67%30.24 "HgN/A
2:20 PM54 °FPartly sunny.17 mph67%30.24 "HgN/A
1:50 PM54 °FScattered clouds.14 mph67%30.24 "HgN/A
1:20 PM54 °FScattered clouds.13 mph67%30.24 "HgN/A
12:50 PM55 °FPassing clouds.14 mph63%30.24 "HgN/A
12:20 PM54 °FScattered clouds.14 mph67%30.24 "HgN/A
11:50 AM54 °FSunny.14 mph67%30.24 "Hg10 mi
11:20 AM52 °FPassing clouds.13 mph72%30.27 "HgN/A
10:50 AM50 °FSunny.16 mph76%30.24 "Hg10 mi
10:20 AM48 °FSunny.12 mph76%30.24 "Hg10 mi
9:50 AM46 °FSunny.14 mph82%30.27 "Hg10 mi
9:20 AM46 °FPassing clouds.15 mph82%30.27 "HgN/A
8:50 AM45 °FPassing clouds.13 mph87%30.24 "HgN/A
8:20 AM45 °FClear.15 mph87%30.24 "Hg10 mi
7:50 AM45 °FClear.15 mph81%30.24 "Hg10 mi
7:20 AM45 °FPassing clouds.15 mph81%30.21 "HgN/A
6:50 AM43 °FClear.15 mph87%30.21 "Hg10 mi
6:20 AM45 °FPassing clouds.16 mph81%30.21 "HgN/A
5:50 AM45 °FPassing clouds.17 mph81%30.21 "HgN/A
5:20 AM45 °FPassing clouds.18 mph76%30.18 "HgN/A
4:50 AM43 °FPassing clouds.14 mph81%30.18 "HgN/A
4:20 AM43 °FPassing clouds.16 mph81%30.18 "HgN/A
Weather by CustomWeather, © 2014

See weather overviewHow to use our weather pages